Temp
15 15 15 15 15 15 16 16 16 16 16 16 16 16 16 16 16 16 16 16 16 16 16 16 16 16 16 16 16 15 13 13 14 12 15 13 13 14 14 14 14 14 14 14 15
14 15 15 15 15 16 16 16 16 16 16 16 16 16 16 16 16 16 16 16 16 16 16 16 16 16 16 16 15 13 12 13 13 12 14 13 13 14 13 13 12 14 14 14 14
15 15 15 15 15 16 16 16 16 16 16 16 16 16 16 16 16 17 16 16 16 16 16 17 16 16 16 15 15 12 13 13 14 14 14 13 12 14 12 12 14 15 15 14 13
15 15 15 15 16 16 16 16 16 16 16 16 16 16 16 16 16 17 17 17 17 17 17 17 16 16 14 14 14 14 14 14 14 14 13 12 13 12 12 16 16 17 16 15 14
15 15 15 16 16 16 16 16 16 16 16 16 16 16 16 15 16 17 17 17 17 17 17 17 16 16 14 13 14 13 14 14 15 14 14 13 12 12 13 16 15 15 15 15 14
15 15 15 16 16 16 16 16 16 16 16 16 16 16 15 14 17 17 17 16 16 16 17 16 16 16 15 14 13 14 13 13 14 13 13 12 11 12 16 16 16 15 14 14 14
15 15 16 16 16 17 17 17 17 16 16 16 16 15 15 17 17 16 16 16 16 16 16 16 16 16 15 13 14 13 13 12 11 12 12 11 12 10 15 15 15 15 15 14 14
15 15 15 16 16 16 17 17 17 16 16 16 15 15 16 16 16 16 16 16 16 16 16 16 15 15 14 14 13 13 12 14 13 11 12 12 14 14 16 15 15 15 14 14 14
15 15 15 16 16 16 16 16 16 16 16 15 15 15 16 16 16 16 16 16 16 15 15 15 15 14 13 12 12 11 14 13 13 10 11 11 13 13 15 14 14 15 15 15 14
15 16 16 16 16 17 17 16 16 15 15 15 14 14 15 16 16 16 16 16 15 15 14 14 14 10 9 11 14 14 13 12 12 13 10 10 11 13 13 13 13 14 15 14 14
15 16 16 16 16 17 17 16 16 15 14 17 16 16 16 16 16 15 15 15 15 14 13 12 12 11 12 10 13 13 13 12 11 11 11 10 10 11 13 12 10 12 12 12 13
15 16 16 16 16 16 17 16 15 14 13 16 15 15 15 15 15 15 15 15 14 12 11 12 11 12 12 10 12 12 12 11 10 10 10 9 10 11 13 11 11 11 12 12 11
15 15 16 16 16 16 16 15 15 14 11 14 14 14 15 15 15 15 14 14 13 12 11 11 14 11 12 11 12 11 11 11 12 10 9 8 10 10 12 11 12 12 12 12 12
14 15 16 16 16 15 15 14 14 13 10 13 13 14 14 14 14 14 14 14 12 12 10 10 11 12 12 12 10 12 10 11 11 10 11 9 12 10 11 10 10 10 11 11 11
14 15 15 15 15 15 14 14 14 13 11 14 13 13 13 13 13 13 13 13 13 11 11 13 10 10 11 11 10 11 10 10 10 9 8 8 9 10 9 13 13 8 10 10 11
13 14 14 15 15 14 14 14 13 11 11 15 13 12 12 12 13 12 12 13 12 12 11 10 11 10 11 10 10 8 9 7 5 7 8 8 9 11 12 12 11 8 7 7 8
13 13 14 14 14 14 13 13 10 10 14 15 14 12 12 12 12 10 11 10 11 13 11 11 10 10 10 10 10 10 9 10 11 8 11 6 7 10 11 10 8 6 4 5 5
12 13 13 13 13 12 13 10 12 12 12 13 13 12 13 12 12 11 10 10 9 11 9 11 11 9 9 10 10 7 9 10 11 10 11 6 8 11 7 3 2 2 2 2 3
11 12 13 12 11 12 12 9 10 10 13 13 13 12 12 12 12 11 9 9 10 8 12 8 10 9 9 10 10 8 8 9 10 7 7 10 9 9 5 4 2 0 0 0 1
10 12 11 11 11 11 8 8 10 10 12 12 12 11 11 12 11 10 10 10 11 8 10 11 10 9 8 9 8 9 8 9 7 10 9 9 9 11 8 6 3 1 -1 -2 -1
9 10 11 11 11 11 7 6 9 11 11 11 11 10 10 11 9 8 11 11 10 9 8 9 9 9 8 7 8 7 8 8 7 7 10 11 12 8 9 7 5 2 -1 -2 -2
7 6 11 10 9 4 6 8 9 10 11 10 9 9 9 9 9 7 8 12 11 8 9 8 6 8 8 8 7 8 8 8 10 9 6 7 12 4 6 5 4 -0 -2 -2 -2
5 5 9 9 7 5 6 7 9 9 9 10 9 8 8 9 9 7 8 10 10 8 8 7 7 7 9 7 6 7 6 7 8 6 10 10 11 2 1 1 0 -2 -3 -4 -4
4 5 7 7 6 7 6 8 8 9 9 9 8 9 8 8 7 8 8 10 9 8 10 9 7 8 11 10 7 6 6 6 9 9 9 9 11 11 3 2 -0 -2 -3 -4 -5
4 5 2 5 4 4 5 6 6 7 7 8 8 3 3 5 7 7 7 7 9 10 8 8 7 7 7 8 8 9 10 9 8 9 9 9 10 10 10 5 2 -1 -3 -5 -6
1 1 1 2 3 3 5 4 4 2 2 5 2 1 2 3 4 4 3 4 6 8 8 6 7 7 7 7 8 8 9 9 9 9 9 9 9 10 8 4 -1 -2 -4 -5 -6
-1 -1 -2 -0 -0 1 2 1 1 2 2 2 2 2 3 4 2 3 3 3 4 5 5 6 5 6 7 8 8 7 7 8 8 8 9 8 8 2 -0 -0 -2 -3 -5 -7 -8
Height
1502 1502 1503 1504 1504 1504 1504 1504 1504 1504 1505 1505 1505 1505 1505 1505 1504 1503 1502 1503 1501 1501 1502 1502 1503 1504 1505 1506 1507 1507 1515 1519 1511 1513 1504 1504 1506 1505 1505 1505 1505 1504 1504 1504 1504
1503 1503 1503 1504 1504 1503 1503 1503 1504 1504 1504 1504 1504 1504 1504 1503 1502 1501 1502 1500 1500 1500 1501 1501 1502 1503 1505 1505 1506 1507 1515 1508 1503 1502 1502 1502 1503 1502 1504 1502 1501 1500 1500 1501 1502
1504 1504 1503 1503 1503 1503 1503 1503 1503 1503 1503 1504 1503 1503 1502 1502 1502 1499 1499 1499 1499 1499 1499 1501 1502 1503 1504 1504 1505 1506 1507 1501 1499 1499 1501 1501 1501 1500 1499 1499 1493 1492 1494 1497 1498
1505 1505 1504 1503 1502 1503 1503 1503 1502 1502 1503 1503 1503 1502 1501 1501 1504 1498 1498 1498 1498 1498 1499 1500 1501 1502 1503 1504 1503 1505 1500 1500 1498 1498 1499 1499 1498 1496 1494 1487 1489 1490 1491 1492 1493
1506 1505 1504 1503 1502 1503 1503 1502 1502 1502 1502 1503 1503 1502 1501 1501 1498 1497 1497 1497 1497 1497 1498 1499 1500 1501 1502 1501 1502 1502 1498 1497 1496 1497 1496 1496 1495 1495 1485 1484 1487 1487 1488 1488 1489
1506 1504 1503 1503 1502 1502 1501 1501 1501 1501 1502 1502 1501 1501 1500 1501 1496 1496 1495 1496 1496 1496 1497 1497 1498 1498 1499 1499 1501 1498 1497 1495 1494 1494 1494 1494 1493 1493 1478 1477 1479 1481 1482 1484 1485
1507 1505 1503 1501 1501 1500 1500 1500 1500 1500 1500 1500 1499 1499 1498 1496 1494 1494 1494 1494 1495 1495 1495 1496 1496 1498 1498 1498 1497 1497 1498 1494 1492 1492 1493 1493 1491 1485 1475 1477 1477 1477 1477 1479 1481
1508 1505 1503 1500 1499 1498 1498 1498 1498 1498 1498 1498 1498 1497 1494 1491 1491 1492 1492 1493 1493 1494 1495 1495 1495 1496 1497 1498 1497 1498 1499 1497 1490 1491 1491 1493 1486 1472 1471 1472 1472 1473 1473 1474 1475
1509 1506 1503 1500 1499 1497 1496 1495 1495 1495 1495 1496 1496 1496 1491 1489 1489 1489 1490 1491 1492 1493 1493 1494 1495 1495 1497 1500 1503 1502 1500 1499 1492 1489 1490 1493 1483 1470 1470 1470 1467 1467 1467 1468 1470
1509 1506 1503 1500 1498 1496 1494 1493 1492 1492 1493 1494 1494 1497 1488 1486 1486 1487 1488 1489 1490 1491 1493 1494 1494 1497 1500 1502 1504 1498 1499 1497 1495 1489 1490 1491 1480 1466 1467 1466 1460 1461 1460 1462 1463
1509 1506 1503 1500 1498 1495 1494 1493 1494 1493 1490 1486 1485 1484 1483 1484 1485 1485 1486 1487 1488 1490 1492 1492 1497 1497 1489 1491 1489 1490 1494 1495 1491 1487 1489 1485 1479 1465 1457 1458 1456 1453 1452 1453 1455
1509 1506 1503 1500 1497 1495 1494 1493 1492 1493 1486 1481 1481 1481 1482 1482 1483 1482 1485 1486 1486 1489 1490 1495 1494 1484 1485 1488 1489 1492 1494 1494 1488 1487 1489 1483 1474 1461 1448 1449 1448 1447 1447 1446 1448
1509 1505 1502 1499 1496 1496 1494 1494 1491 1490 1488 1477 1477 1478 1479 1481 1479 1479 1482 1482 1483 1487 1489 1491 1482 1482 1484 1488 1490 1491 1493 1490 1487 1487 1487 1487 1471 1459 1445 1445 1444 1444 1444 1444 1444
1508 1505 1501 1498 1498 1494 1494 1493 1490 1489 1495 1479 1475 1475 1476 1478 1478 1477 1478 1481 1482 1484 1487 1487 1481 1481 1483 1485 1487 1490 1483 1484 1486 1490 1492 1487 1475 1464 1449 1446 1443 1440 1440 1441 1442
1507 1503 1500 1497 1496 1495 1495 1492 1490 1490 1517 1476 1474 1474 1475 1477 1477 1476 1476 1477 1479 1480 1484 1477 1480 1481 1483 1479 1480 1481 1481 1485 1488 1492 1496 1492 1492 1457 1452 1441 1440 1441 1439 1440 1440
1506 1502 1499 1497 1495 1494 1492 1491 1491 1501 1511 1473 1472 1473 1475 1474 1474 1474 1475 1477 1477 1478 1479 1476 1474 1474 1472 1474 1476 1480 1484 1491 1498 1498 1496 1480 1479 1457 1446 1440 1440 1441 1441 1440 1439
1504 1500 1497 1495 1494 1492 1491 1491 1503 1508 1474 1472 1471 1472 1473 1473 1472 1473 1475 1478 1479 1480 1482 1473 1472 1468 1469 1474 1477 1478 1484 1491 1489 1496 1479 1486 1486 1449 1439 1438 1440 1441 1441 1441 1440
1502 1498 1495 1492 1491 1490 1490 1493 1502 1484 1479 1469 1470 1472 1472 1469 1469 1471 1474 1476 1472 1473 1482 1478 1477 1467 1464 1464 1469 1479 1479 1484 1482 1483 1473 1487 1468 1440 1440 1440 1440 1441 1442 1441 1441
1499 1495 1491 1489 1488 1489 1490 1500 1490 1482 1471 1470 1470 1472 1472 1469 1470 1471 1474 1472 1464 1465 1471 1479 1472 1462 1462 1462 1463 1475 1478 1471 1473 1484 1485 1457 1449 1436 1440 1441 1441 1442 1441 1442 1442
1496 1492 1488 1487 1487 1488 1490 1489 1479 1471 1469 1470 1474 1471 1474 1468 1471 1473 1468 1460 1457 1456 1457 1459 1467 1458 1461 1461 1465 1465 1466 1473 1480 1473 1475 1455 1451 1432 1434 1433 1438 1439 1440 1441 1442
1495 1491 1487 1486 1485 1486 1491 1486 1475 1469 1470 1472 1470 1470 1470 1468 1471 1473 1460 1454 1451 1454 1456 1459 1463 1458 1460 1460 1458 1468 1467 1467 1468 1469 1456 1447 1425 1420 1419 1421 1426 1432 1436 1438 1440
1493 1492 1485 1483 1486 1484 1484 1477 1476 1471 1470 1469 1467 1467 1468 1467 1465 1468 1461 1450 1445 1448 1454 1452 1461 1455 1451 1444 1444 1445 1447 1449 1452 1452 1458 1452 1414 1419 1419 1419 1420 1428 1432 1435 1438
1491 1487 1480 1480 1483 1483 1478 1476 1474 1471 1469 1466 1465 1465 1464 1465 1465 1455 1450 1442 1442 1443 1446 1448 1456 1456 1442 1448 1446 1443 1443 1441 1440 1447 1425 1435 1410 1421 1422 1423 1422 1423 1428 1430 1432
1493 1489 1481 1480 1480 1480 1479 1475 1473 1469 1467 1465 1463 1462 1461 1458 1459 1450 1447 1440 1439 1438 1437 1439 1443 1437 1426 1424 1433 1442 1438 1437 1432 1430 1423 1417 1409 1402 1419 1419 1421 1422 1423 1429 1431
1496 1492 1493 1486 1483 1485 1484 1480 1476 1472 1471 1466 1460 1472 1476 1463 1455 1451 1445 1443 1437 1437 1439 1440 1439 1435 1425 1420 1426 1422 1420 1417 1422 1413 1416 1403 1409 1385 1399 1403 1406 1412 1421 1425 1427
1500 1501 1496 1494 1489 1485 1483 1481 1481 1484 1485 1475 1477 1480 1478 1472 1470 1459 1460 1457 1445 1436 1436 1434 1425 1427 1419 1412 1416 1412 1405 1403 1406 1401 1402 1394 1387 1380 1391 1396 1402 1407 1414 1420 1424
1503 1502 1500 1496 1493 1490 1488 1488 1486 1485 1482 1481 1478 1475 1470 1465 1464 1458 1454 1450 1447 1440 1435 1431 1423 1420 1403 1402 1404 1400 1392 1393 1389 1390 1389 1387 1377 1391 1397 1400 1405 1409 1415 1420 1426
Wind_Speed
3 1 1 2 3 3 3 4 4 4 4 5 7 9 9 8 7 6 4 5 4 3 3 5 6 5 3 3 3 4 3 2 4 5 3 6 5 5 4 6 10 10 10 7 7
5 2 1 2 3 3 3 4 4 4 4 4 6 9 9 8 7 9 5 4 1 3 4 6 6 4 3 4 3 3 3 6 4 4 3 4 7 5 4 7 9 16 18 16 13
5 3 2 2 3 3 4 4 3 3 2 2 5 7 5 5 6 3 3 2 1 3 5 6 6 4 3 3 3 3 5 3 4 7 5 4 4 7 6 6 17 20 24 22 19
7 4 2 2 2 3 4 4 3 2 3 2 4 6 6 4 1 2 3 3 2 3 6 6 6 3 3 3 4 1 6 5 3 7 5 4 3 5 17 17 6 6 13 19 23
10 8 5 4 4 5 4 3 3 3 5 4 6 8 6 5 7 5 4 4 4 4 6 8 7 5 3 4 3 4 3 5 6 6 8 6 10 8 19 25 24 17 14 16 20
13 10 7 6 5 5 4 4 5 5 6 9 11 9 7 5 5 4 4 4 4 4 5 8 5 7 3 4 5 4 4 6 6 7 7 4 3 1 7 4 16 24 24 21 22
17 13 10 8 7 6 5 6 7 7 7 8 9 8 9 12 7 5 3 5 4 4 4 5 6 6 4 2 2 1 4 4 7 5 4 3 6 10 19 8 9 13 15 19 21
20 18 14 9 6 6 7 8 9 9 9 7 6 8 8 8 9 7 5 5 6 4 3 4 3 4 2 2 3 2 2 3 2 5 2 3 8 5 4 10 19 16 15 18 22
20 20 18 11 5 5 7 9 9 10 12 11 11 7 7 6 10 9 6 4 6 5 5 4 4 2 2 3 4 3 3 4 6 7 2 4 8 6 4 10 20 21 22 20 20
19 19 19 13 7 10 7 7 9 10 10 12 12 6 10 5 7 8 7 5 6 6 3 4 2 2 2 3 5 4 4 4 5 3 3 4 17 18 22 25 28 28 30 28 24
19 18 17 16 8 11 8 5 3 4 9 10 5 4 3 7 6 6 7 6 6 4 4 1 2 8 10 8 2 2 3 5 4 3 3 7 13 19 20 19 19 29 29 30 28
20 18 17 14 9 10 8 4 4 5 9 15 21 16 11 7 4 9 9 7 5 5 4 2 8 5 3 4 4 3 2 6 5 1 4 5 14 16 21 9 15 14 11 14 20
21 20 18 15 8 8 6 7 8 9 4 5 8 8 8 10 5 8 11 6 4 5 6 6 2 4 4 3 4 3 5 4 5 4 2 6 8 5 3 3 5 9 8 7 18
21 21 19 16 5 11 6 10 10 8 4 4 3 3 5 5 3 7 10 4 1 6 6 6 1 5 4 5 7 4 5 3 1 2 4 3 7 5 7 8 4 8 8 5 11
21 21 19 17 12 9 9 10 8 3 4 2 3 4 5 5 3 4 8 5 5 5 5 6 7 5 5 7 8 6 3 4 2 2 2 2 2 7 2 5 1 5 2 2 6
21 21 20 17 13 7 9 8 4 5 6 2 3 2 2 3 2 4 3 4 1 2 2 6 1 6 7 2 4 6 5 5 3 2 2 5 6 4 4 5 3 1 3 3 4
22 21 20 17 9 9 7 4 4 4 3 2 3 3 3 5 3 6 5 4 6 2 4 2 4 2 3 4 1 2 5 3 3 0 6 3 2 8 4 3 2 1 2 4 6
23 21 20 14 12 7 3 3 4 4 6 2 1 2 5 5 3 3 2 4 5 2 2 4 6 8 5 6 7 6 7 5 8 4 3 2 7 6 0 4 4 6 6 7 8
24 21 19 12 5 3 3 2 7 7 3 1 1 3 3 1 3 3 6 6 7 10 9 6 6 1 2 2 2 5 5 3 1 2 2 5 7 7 4 2 4 6 8 8 9
25 21 10 3 2 3 2 5 5 4 1 1 5 6 6 4 3 4 5 4 4 10 1 3 6 2 3 3 2 4 3 3 1 4 6 5 6 7 6 11 8 8 10 10 10
23 10 4 3 6 4 3 7 5 6 4 5 4 5 6 4 6 5 5 4 6 4 4 5 4 3 5 8 10 2 3 2 3 4 6 11 9 5 6 8 14 10 15 15 14
11 3 7 15 2 1 2 3 4 4 2 5 3 7 7 7 7 8 10 10 11 9 8 7 5 8 13 2 2 5 9 9 6 8 5 2 19 1 3 5 13 16 19 18 16
12 8 4 2 2 3 4 4 4 4 5 2 3 5 1 4 5 8 7 8 12 9 8 7 4 5 6 2 3 5 5 5 1 2 23 13 14 1 1 2 8 20 23 21 20
6 4 6 2 2 2 4 5 4 5 5 4 3 3 5 9 7 7 4 4 7 8 7 9 6 8 17 7 5 5 7 8 14 10 14 19 24 22 7 10 10 17 25 20 19
5 4 7 4 6 11 9 5 11 8 12 12 2 13 9 5 4 6 5 5 4 4 3 3 9 6 15 17 11 19 21 21 20 20 18 23 19 27 16 15 20 22 22 21 20
6 7 9 11 16 9 5 2 7 7 8 7 8 19 16 7 12 7 9 5 6 2 14 6 10 16 22 27 23 25 26 25 24 26 23 28 30 26 11 8 18 27 27 23 23
9 5 2 6 6 4 4 6 9 10 7 9 13 13 12 12 20 27 28 24 21 17 15 5 4 6 20 17 14 15 22 25 22 21 16 24 26 7 3 7 8 17 19 22 23
Wind_Direction
57 102 216 244 267 275 270 276 268 258 261 263 277 293 299 297 266 284 277 286 276 218 173 174 171 175 177 184 174 145 76 231 235 163 241 170 193 197 213 216 207 210 224 217 199
41 36 338 287 282 270 267 267 257 250 261 281 296 298 292 291 265 263 284 293 265 191 188 178 175 183 183 178 178 127 148 220 201 194 218 200 199 200 200 219 234 232 231 228 221
22 7 328 286 267 264 266 256 242 237 247 289 314 313 298 304 288 246 257 273 251 199 191 190 195 193 190 191 201 168 207 208 239 219 208 207 234 220 205 240 230 231 234 226 221
17 4 335 296 280 274 261 245 234 226 230 284 317 329 305 299 246 234 268 241 231 213 195 196 196 186 169 204 188 218 241 202 226 211 187 202 229 243 218 240 236 251 244 230 223
14 1 347 327 292 266 258 245 235 252 241 260 302 313 307 271 258 269 254 232 231 227 210 205 205 195 199 195 172 198 244 224 242 228 229 241 243 245 259 257 251 248 233 235 232
14 5 347 317 287 269 259 248 253 269 260 267 288 297 280 253 240 259 246 237 236 229 222 211 219 213 216 204 182 205 254 256 258 241 236 219 245 205 265 257 229 237 242 239 233
18 7 349 318 288 270 259 258 263 266 275 285 283 291 268 260 239 249 255 227 223 222 228 211 208 198 182 204 233 267 310 302 219 213 240 194 275 233 251 249 222 224 229 230 227
14 10 358 346 314 278 268 261 262 262 267 266 290 290 262 250 229 242 250 231 219 216 209 198 191 201 211 171 14 14 59 333 182 161 188 164 270 266 265 222 238 241 233 230 226
6 5 2 352 353 344 295 276 270 268 260 260 276 267 260 237 224 229 235 241 215 222 211 209 190 182 131 96 353 359 239 223 311 202 135 179 271 259 246 237 250 242 242 238 236
360 359 1 360 349 339 325 299 275 267 256 257 245 268 233 224 207 214 228 226 200 190 186 192 170 87 60 121 232 211 230 245 243 209 205 224 261 273 264 260 257 261 260 247 242
359 356 354 356 337 350 347 327 312 266 233 223 217 218 177 205 218 230 215 197 183 184 187 151 120 219 214 201 195 175 203 239 243 222 236 230 265 276 281 243 253 261 263 259 247
359 357 352 350 342 352 356 357 353 306 298 251 242 238 245 236 241 217 199 190 171 199 131 38 236 220 136 155 171 183 226 257 275 222 189 312 282 276 278 256 239 260 258 259 227
354 355 355 348 342 348 348 2 340 328 271 270 229 233 229 220 232 209 195 189 174 176 190 183 214 119 148 157 168 218 197 226 233 325 223 318 279 301 296 263 271 259 260 262 217
351 352 352 352 347 339 337 339 335 334 33 262 221 217 190 195 254 192 192 196 188 205 172 232 226 178 182 225 157 253 208 163 186 54 251 1 289 296 285 305 283 313 228 248 214
346 345 347 348 333 325 322 328 331 350 347 195 179 172 184 191 152 205 192 189 207 193 143 247 171 179 189 217 165 224 135 143 102 149 12 253 255 266 288 294 23 3 82 229 208
341 339 338 337 326 317 318 324 327 44 254 227 150 172 157 209 219 151 177 198 149 176 243 245 222 182 207 134 168 140 89 57 59 103 262 213 190 268 205 209 191 91 76 77 164
338 337 333 328 318 309 312 312 30 161 327 202 218 175 213 207 219 180 173 186 192 181 245 262 218 206 169 111 51 136 92 308 303 226 234 154 187 257 260 232 266 291 118 108 142
335 335 330 317 306 297 291 54 206 240 249 317 95 155 215 160 233 165 165 255 231 134 125 213 301 180 182 200 183 174 170 179 231 214 251 98 237 243 12 80 85 112 133 132 140
332 332 322 311 293 293 183 147 210 212 250 270 278 214 267 265 197 163 214 217 223 178 186 181 264 138 174 135 141 177 186 194 125 99 353 220 278 277 157 166 134 139 148 141 143
340 335 310 314 308 316 95 236 241 219 302 100 209 183 215 222 184 186 214 200 236 194 104 227 293 192 153 121 42 174 165 95 3 241 241 269 268 240 231 224 186 184 174 158 151
340 325 273 291 310 243 205 230 272 283 247 207 230 265 229 228 206 207 245 254 208 169 184 161 172 238 128 200 180 156 209 187 185 166 234 269 261 209 220 198 195 181 177 168 161
343 325 271 288 287 141 213 219 316 302 337 271 222 217 213 210 236 224 224 216 180 160 177 210 177 241 225 229 210 193 193 174 202 234 232 250 264 303 251 213 167 164 171 169 167
326 277 275 217 213 238 282 287 264 266 246 239 261 204 175 236 265 212 224 237 197 173 188 183 224 283 308 18 345 221 201 207 280 35 247 249 259 100 48 181 174 160 175 173 171
323 316 314 311 22 350 342 301 288 335 278 275 267 258 221 236 229 276 248 270 222 215 234 157 206 199 241 230 125 191 211 211 218 242 262 247 269 259 213 214 192 185 180 175 171
18 350 21 342 354 338 339 313 311 330 346 317 255 40 1 293 289 252 261 307 234 272 259 182 258 270 279 276 281 271 263 248 231 245 249 263 252 259 244 212 200 184 168 163 163
27 356 340 308 329 342 340 27 350 357 343 327 2 336 327 301 305 299 334 341 292 263 264 204 262 263 263 265 264 262 252 252 250 253 254 255 255 253 268 160 154 172 166 161 162
9 5 350 300 334 334 353 15 339 332 265 292 296 300 296 294 301 290 274 264 253 267 282 249 238 237 254 265 264 254 245 245 246 249 247 249 260 343 76 74 129 150 150 137 140